Weather History for Mansfield, OH

Change the Weather History Date:

Thursday, March 1, 2012

  Actual Average Record
Temperature  
Mean Temperature 39 °F 32 °F  
Max Temperature 48 °F 40 °F 68 °F (1972)
Min Temperature 30 °F 24 °F 0 °F (1980)
Degree Days  
Heating Degree Days 26 33  
Month to date heating degree days 26 33  
Since 1 July heating degree days 3944 4658  
Cooling Degree Days 0 0  
Month to date cooling degree days 0 0  
Year to date cooling degree days 0 0  
Moisture  
Dew Point 30 °F    
Average Humidity 74    
Maximum Humidity 92    
Minimum Humidity 56    
Precipitation  
Precipitation 0.00 in 0.09 in 0.92 in (2007)
Month to date precipitation 0.00 0.09  
Year to date precipitation 6.13 5.35  
Snow  
Snow 0.00 in 0.40 in - ()
Month to date snowfall 0.0 0.4  
Since 1 July snowfall 31.7 38.3  
Snow Depth 0.00 in    
Sea Level Pressure  
Sea Level Pressure 29.80 in    
Wind  
Wind Speed 10 mph (WSW)    
Max Wind Speed 24 mph    
Max Gust Speed 33 mph    
Visibility 10 miles    
Events      
T = Trace of Precipitation, MM = Missing Value Source: NWS Daily Summary

Daily Weather History Graph

Daily Weather History Graph

Search for Another Location

Airport:

Trip Planner

Search our weather history database for the weather conditions in past years. The results will help you decide how hot, cold, wet, or windy it might be!

Date:

Astronomy

Mar. 01, 2012 Rise Set
Actual Time 7:03 AM EST 6:21 PM EST
Civil Twilight 6:35 AM EST 6:49 PM EST
Nautical Twilight 6:04 AM EST 7:21 PM EST
Astronomical Twilight 5:32 AM EST 7:52 PM EST
Moon 11:39 AM EST (3/1) 2:02 AM EST (3/1)
Length of Visible Light 12h 13m
Length of Day
11h 18m
First Quarter, 56% of the Moon is Illuminated
Mar 1
First Quarter
Mar 8
Full
Mar 14
Last Quarter
Mar 22
New
Mar 30
First Quarter

Hourly Weather History & Observations

Time (EST) Temp. Windchill Dew Point Humidity Pressure Visibility Wind Dir Wind Speed Gust Speed Precip Events Conditions
12:52 AM 46.0 °F 39.6 °F 32.0 °F 58% 29.60 in 10.0 mi WSW 15.0 mph 23.0 mph N/A   Overcast
1:52 AM 43.0 °F 35.4 °F 33.1 °F 68% 29.61 in 10.0 mi West 16.1 mph 19.6 mph N/A   Overcast
2:52 AM 41.0 °F 33.9 °F 32.0 °F 70% 29.63 in 10.0 mi West 12.7 mph 18.4 mph N/A   Overcast
3:52 AM 39.0 °F 29.6 °F 30.0 °F 70% 29.65 in 10.0 mi WSW 18.4 mph 27.6 mph N/A   Overcast
4:52 AM 37.9 °F 28.5 °F 28.0 °F 68% 29.67 in 10.0 mi WSW 17.3 mph 31.1 mph N/A   Overcast
5:19 AM 37.4 °F 28.9 °F 28.4 °F 70% 29.67 in 10.0 mi West 13.8 mph 21.9 mph N/A   Overcast
5:52 AM 37.0 °F 28.9 °F 28.9 °F 73% 29.69 in 10.0 mi West 12.7 mph 27.6 mph N/A   Overcast
6:24 AM 37.4 °F 29.8 °F 30.2 °F 75% 29.70 in 10.0 mi WSW 11.5 mph 24.2 mph N/A   Overcast
6:52 AM 36.0 °F 26.7 °F 28.9 °F 76% 29.72 in 10.0 mi West 15.0 mph 27.6 mph N/A   Overcast
7:52 AM 35.1 °F 26.9 °F 28.9 °F 78% 29.74 in 10.0 mi WSW 11.5 mph - N/A   Overcast
8:52 AM 35.1 °F 27.4 °F 28.9 °F 78% 29.77 in 10.0 mi West 10.4 mph 20.7 mph N/A   Overcast
9:52 AM 35.1 °F 26.9 °F 30.0 °F 82% 29.79 in 10.0 mi WSW 11.5 mph 19.6 mph N/A   Overcast
10:52 AM 35.1 °F 26.4 °F 28.9 °F 78% 29.82 in 10.0 mi WSW 12.7 mph 21.9 mph N/A   Overcast
11:21 AM 35.6 °F 28.0 °F 30.2 °F 81% 29.81 in 10.0 mi WSW 10.4 mph - N/A   Overcast
11:52 AM 37.0 °F 31.0 °F 30.0 °F 76% 29.84 in 10.0 mi WSW 8.1 mph - N/A   Overcast
12:15 PM 37.4 °F 28.9 °F 30.2 °F 75% 29.82 in 10.0 mi WSW 13.8 mph 20.7 mph N/A   Overcast
12:44 PM 37.4 °F 28.9 °F 30.2 °F 75% 29.82 in 10.0 mi SW 13.8 mph 20.7 mph N/A   Overcast
12:52 PM 37.9 °F 29.2 °F 30.0 °F 73% 29.84 in 10.0 mi WSW 15.0 mph 20.7 mph N/A   Overcast
1:01 PM 37.4 °F 28.9 °F 30.2 °F 75% 29.82 in 10.0 mi WSW 13.8 mph 21.9 mph N/A   Overcast
1:52 PM 37.9 °F 30.5 °F 30.0 °F 73% 29.85 in 10.0 mi WSW 11.5 mph 18.4 mph N/A   Overcast
2:52 PM 37.9 °F 29.6 °F 30.9 °F 76% 29.86 in 10.0 mi WSW 13.8 mph 20.7 mph N/A   Overcast
3:52 PM 37.9 °F 30.9 °F 30.9 °F 76% 29.88 in 10.0 mi West 10.4 mph 19.6 mph N/A   Overcast
4:52 PM 37.9 °F 30.5 °F 30.9 °F 76% 29.89 in 10.0 mi WSW 11.5 mph - N/A   Overcast
5:52 PM 37.0 °F 31.6 °F 30.9 °F 79% 29.90 in 10.0 mi WSW 6.9 mph - N/A   Overcast
6:52 PM 37.0 °F 34.5 °F 30.9 °F 79% 29.92 in 10.0 mi West 3.5 mph - N/A   Overcast
7:52 PM 37.0 °F - 32.0 °F 82% 29.93 in 10.0 mi Calm Calm - N/A   Overcast
8:52 PM 37.0 °F - 30.9 °F 79% 29.93 in 10.0 mi Calm Calm - N/A   Mostly Cloudy
9:05 PM 35.6 °F - 28.4 °F 75% 29.89 in 10.0 mi Calm Calm - N/A   Scattered Clouds
9:52 PM 34.0 °F - 28.9 °F 82% 29.93 in 10.0 mi Calm Calm - N/A   Clear
10:52 PM 30.9 °F 25.2 °F 28.9 °F 92% 29.91 in 10.0 mi ESE 5.8 mph - N/A   Clear
11:52 PM 30.9 °F 25.2 °F 28.9 °F 92% 29.90 in 10.0 mi ESE 5.8 mph - N/A   Clear